AETHER-2

导读 | 星芒AI

AETHER-2 是一颗由美国初创公司 Aether Aerospace 开发的实验性卫星,旨在验证其自主卫星通信和轨道机动技术。该卫星于2023年发射,主要用于测试高带宽数据传输和自主轨道调整能力,以支持未来低轨卫星互联网星座的发展。AETHER-2 还具备与其他卫星进行在轨协作的潜力,为构建更智能、更灵活的太空通信网络奠定基础。

基本信息
目录编号:
58299
目录名称:
AETHER-2
国际标识:
2023-174AV
轨道中心:
EARTH
卫星名称:
AETHER-2
卫星全名:
--
卫星状态:
在轨 (已飞行765 天)
发射日期:
2023-11-11 UTC
国别 :
加拿大 (CA)
星等 :
--
轨道信息
数据来源 国际轨道数据
星历时间: 2025-12-15T07:11:10+0800
18小时前
查看轨道信息
半长轴: 6848.625km
偏心率: 0.0009213
轨道倾角: 97.407°
近地点辐角 89.266°
升交点赤经 67.158°
平近点角 270.964°
近地点: 464.18km
远地点: 476.8km
周期: 94.008分钟
每日圈数: 15.317846
详细信息
使用方式:
暂无
2D轨道图
3D轨道图
轨道高度分析图
轨道倾角分析图
轨道综合分析图
查看轨道综合分析图